�N����,����,�~����,�C��,���x,�C��,����,���ϕ���,�ő�u�ԕ���,�ő厞����,���˗�,�I�_���x,�n�����x,�ő啗���N��,DTYPE
"19/01/30","00:10",0.0,0.7,90.4,1019.2,296.2,2.3,2.9,304.7,0.00,-0.6,5.2,"00:02:40",1
"19/01/30","00:20",0.0,0.6,90.7,1019.2,298.3,2.2,2.9,299.8,0.00,-0.7,5.2,"00:10:08",1
"19/01/30","00:30",0.0,0.4,90.7,1019.4,334.1,1.6,2.6,337.1,0.00,-0.9,5.1,"00:27:36",1
"19/01/30","00:40",0.0,0.1,91.7,1019.2,329.6,1.8,2.9,334.5,0.00,-1.0,5.1,"00:38:56",1
"19/01/30","00:50",0.0,0.5,92.0,1019.2,330.6,3.0,4.2,326.4,0.00,-0.6,5.1,"00:47:28",1
"19/01/30","01:00",0.0,0.5,91.8,1019.2,328.3,2.8,4.8,331.3,0.00,-0.6,4.7,"00:56:48",1
"19/01/30","01:10",0.0,0.4,92.3,1018.7,326.6,2.6,4.2,323.0,0.00,-0.7,4.6,"01:08:32",1
"19/01/30","01:20",0.0,0.5,92.3,1018.7,354.9,1.3,4.1,325.3,0.00,-0.6,4.9,"01:11:28",1
"19/01/30","01:30",0.0,0.5,92.6,1019.2,280.6,1.2,2.2,315.2,0.00,-0.5,4.6,"01:28:16",1
"19/01/30","01:40",0.0,0.4,92.0,1018.7,327.2,1.8,2.7,337.6,0.00,-0.7,4.9,"01:38:32",1
"19/01/30","01:50",0.0,-0.1,92.2,1018.5,317.7,1.7,2.6,327.4,0.00,-1.2,4.6,"01:41:04",1
"19/01/30","02:00",0.0,-0.2,93.0,1018.5,308.7,1.6,2.1,319.6,0.00,-1.2,4.6,"01:57:44",1
"19/01/30","02:10",0.0,-0.4,93.4,1018.5,287.4,1.3,1.7,304.0,0.00,-1.3,4.6,"02:02:16",1
"19/01/30","02:20",0.0,-0.4,93.4,1018.5,286.8,1.5,1.9,270.2,0.00,-1.3,4.4,"02:12:56",1
"19/01/30","02:30",0.0,-0.5,93.5,1018.7,302.3,0.6,1.3,330.0,0.00,-1.4,4.5,"02:20:08",1
"19/01/30","02:40",0.0,-0.8,93.4,1018.5,328.2,0.8,1.9,319.6,0.00,-1.7,4.6,"02:39:52",1
"19/01/30","02:50",0.0,-1.2,94.1,1018.5,330.0,1.1,2.1,334.6,0.00,-2.0,4.4,"02:42:00",1
"19/01/30","03:00",0.0,-1.3,94.7,1018.5,334.0,0.8,1.8,318.5,0.00,-2.0,4.3,"02:58:48",1
"19/01/30","03:10",0.0,-1.3,95.1,1018.5,290.4,1.0,1.3,334.2,0.00,-1.9,4.3,"03:00:08",1
"19/01/30","03:20",0.0,-1.1,95.6,1018.5,305.7,1.0,1.6,326.5,0.00,-1.7,4.3,"03:14:16",1
"19/01/30","03:30",0.0,-1.1,95.1,1018.5,344.8,0.7,1.1,348.9,0.00,-1.7,4.3,"03:20:08",1
"19/01/30","03:40",0.0,-1.2,95.8,1018.7,326.5,0.8,1.9,340.2,0.00,-1.7,4.4,"03:38:48",1
"19/01/30","03:50",0.0,-0.8,95.7,1018.2,355.9,1.2,2.7,347.2,0.00,-1.4,4.2,"03:40:48",1
"19/01/30","04:00",0.0,-1.1,95.8,1019.0,328.6,1.2,1.7,324.8,0.00,-1.6,4.3,"03:53:12",1
"19/01/30","04:10",0.0,-1.0,96.5,1018.5,336.1,1.1,2.5,338.6,0.00,-1.4,4.1,"04:06:48",1
"19/01/30","04:20",0.0,-0.8,96.2,1018.7,357.2,0.8,2.4,339.3,0.00,-1.3,4.1,"04:10:02",1
"19/01/30","04:30",0.0,-0.7,96.8,1019.4,343.8,1.3,2.5,334.8,0.00,-1.1,4.1,"04:20:48",1
"19/01/30","04:40",0.0,-0.3,96.4,1019.7,335.0,1.7,3.7,325.1,0.00,-0.8,4.1,"04:35:18",1
"19/01/30","04:50",0.0,0.0,96.0,1019.9,331.4,2.0,3.3,341.6,0.00,-0.5,3.9,"04:43:06",1
"19/01/30","05:00",0.0,0.0,95.5,1019.9,324.7,2.5,4.2,336.0,0.00,-0.6,4.2,"04:52:00",1
"19/01/30","05:10",0.0,0.1,95.4,1019.7,329.6,3.5,6.4,335.4,0.00,-0.5,4.0,"05:06:34",1
"19/01/30","05:20",0.0,0.1,95.1,1019.7,329.1,3.4,4.9,334.1,0.00,-0.5,4.0,"05:13:04",1
"19/01/30","05:30",0.0,0.2,94.8,1020.1,326.5,3.1,4.5,337.4,0.00,-0.5,4.0,"05:25:32",1
"19/01/30","05:40",0.0,0.3,94.2,1020.4,323.4,3.1,5.5,336.3,0.00,-0.5,3.9,"05:37:42",1
"19/01/30","05:50",0.0,0.2,93.7,1020.4,317.6,3.1,4.9,327.1,0.00,-0.7,3.9,"05:46:18",1
"19/01/30","06:00",0.0,-0.2,93.2,1020.6,345.4,1.3,3.5,327.3,0.00,-1.1,3.9,"05:50:32",1
"19/01/30","06:10",0.0,-0.7,93.4,1020.6,283.6,0.7,1.2,316.5,0.00,-1.6,4.0,"06:03:52",1
"19/01/30","06:20",0.0,-1.1,93.5,1020.8,293.4,1.0,1.9,338.0,0.00,-2.0,3.9,"06:16:56",1
"19/01/30","06:30",0.0,-1.1,93.9,1020.6,340.8,1.1,2.1,338.2,0.00,-1.9,3.9,"06:26:08",1
"19/01/30","06:40",0.0,-1.5,94.2,1020.4,279.5,0.8,1.4,314.7,0.00,-2.3,3.9,"06:38:24",1
"19/01/30","06:50",0.0,-1.8,94.3,1020.4,318.5,1.8,2.5,326.4,0.00,-2.6,3.8,"06:45:12",1
"19/01/30","07:00",0.0,-1.7,95.0,1020.1,330.9,1.7,2.4,330.3,0.00,-2.4,3.9,"06:50:16",1
"19/01/30","07:10",0.0,-1.9,95.1,1019.9,302.2,1.0,2.0,329.0,0.00,-2.5,3.6,"07:00:40",1
"19/01/30","07:20",0.0,-1.8,96.0,1019.9,303.2,1.8,2.4,314.7,0.00,-2.3,3.7,"07:15:36",1
"19/01/30","07:30",0.0,-1.7,95.2,1019.9,320.4,1.6,2.2,324.1,0.00,-2.3,3.7,"07:21:04",1
"19/01/30","07:40",0.0,-1.9,96.2,1019.7,325.6,1.5,2.6,314.1,0.00,-2.4,3.6,"07:30:56",1
"19/01/30","07:50",0.0,-1.7,96.3,1019.7,92.5,0.2,1.1,321.6,0.00,-2.2,3.6,"07:49:20",1
"19/01/30","08:00",0.0,-1.4,96.2,1019.9,329.5,1.0,1.9,337.9,0.00,-1.9,3.6,"07:53:36",1
"19/01/30","08:10",0.0,-1.5,96.9,1020.4,321.4,2.1,2.6,325.8,0.01,-1.9,3.2,"08:08:32",1
"19/01/30","08:20",0.0,-0.7,97.1,1020.1,325.0,2.1,2.6,323.7,0.02,-1.1,3.4,"08:15:24",1
"19/01/30","08:30",0.0,0.2,97.0,1020.1,320.6,1.6,2.5,334.2,0.03,-0.2,3.6,"08:24:10",1
"19/01/30","08:40",0.0,0.7,96.5,1020.1,313.9,1.3,2.2,322.5,0.05,0.2,3.7,"08:34:16",1
"19/01/30","08:50",0.0,1.6,95.5,1020.4,300.8,0.8,1.4,293.4,0.06,1.0,3.5,"08:40:08",1
"19/01/30","09:00",0.0,1.4,94.5,1020.8,255.6,0.8,1.2,255.8,0.08,0.7,3.9,"08:57:46",1
"19/01/30","09:10",0.0,1.9,92.7,1021.1,291.7,1.5,2.7,316.7,0.11,0.9,3.9,"09:07:48",1
"19/01/30","09:20",0.0,2.7,90.3,1021.1,312.5,1.7,2.9,332.7,0.14,1.3,3.7,"09:19:06",1
"19/01/30","09:30",0.0,3.1,88.0,1021.8,320.1,2.0,3.1,317.9,0.16,1.3,4.0,"09:20:20",1
"19/01/30","09:40",0.0,3.9,83.8,1022.0,317.4,1.5,2.2,325.9,0.18,1.5,4.2,"09:35:32",1
"19/01/30","09:50",0.0,4.5,81.7,1022.5,325.1,1.8,3.2,335.0,0.21,1.7,4.3,"09:47:56",1
"19/01/30","10:00",0.0,4.8,78.0,1022.5,312.0,1.1,2.5,323.4,0.26,1.3,4.3,"09:51:38",1
"19/01/30","10:10",0.0,4.9,76.1,1022.5,335.0,0.7,1.7,334.6,0.29,1.1,4.7,"10:04:08",1
"19/01/30","10:20",0.0,5.2,76.2,1022.7,92.6,1.0,2.2,115.5,0.31,1.4,4.9,"10:19:20",1
"19/01/30","10:30",0.0,5.8,75.6,1022.3,180.1,1.3,2.9,154.3,0.30,1.9,5.1,"10:21:12",1
"19/01/30","10:40",0.0,6.4,74.6,1022.3,183.5,1.5,3.7,204.6,0.28,2.3,5.3,"10:38:24",1
"19/01/30","10:50",0.0,6.1,72.4,1022.7,159.6,1.5,2.9,137.6,0.24,1.6,5.4,"10:44:40",1
"19/01/30","11:00",0.0,6.0,70.7,1022.5,179.6,1.5,3.3,205.9,0.30,1.1,5.6,"10:59:12",1
"19/01/30","11:10",0.0,6.3,70.3,1022.5,242.3,1.0,2.5,159.4,0.26,1.3,6.0,"11:09:12",1
"19/01/30","11:20",0.0,6.3,69.6,1022.0,217.0,1.5,3.4,132.7,0.27,1.2,6.0,"11:12:24",1
"19/01/30","11:30",0.0,6.7,68.4,1022.0,133.1,1.0,2.7,138.9,0.38,1.3,6.4,"11:21:12",1
"19/01/30","11:40",0.0,7.2,68.0,1021.8,79.0,1.1,3.3,110.0,0.42,1.7,6.7,"11:31:52",1
"19/01/30","11:50",0.0,7.3,66.4,1021.8,220.8,1.1,2.9,152.5,0.42,1.5,6.7,"11:44:56",1
"19/01/30","12:00",0.0,7.6,65.4,1021.5,212.0,1.3,3.3,117.4,0.43,1.6,7.1,"11:51:52",1
"19/01/30","12:10",0.0,7.6,65.1,1021.1,128.8,1.5,3.2,162.9,0.43,1.5,7.3,"12:00:02",1
"19/01/30","12:20",0.0,7.8,63.8,1020.6,142.4,1.5,3.4,122.1,0.44,1.4,7.5,"12:18:08",1
"19/01/30","12:30",0.0,8.6,63.3,1020.1,167.5,1.5,5.4,152.4,0.44,2.1,7.8,"12:24:24",1
"19/01/30","12:40",0.0,8.4,62.5,1020.1,150.6,1.8,3.7,115.4,0.44,1.7,7.7,"12:33:04",1
"19/01/30","12:50",0.0,9.1,61.9,1019.4,226.2,1.2,3.1,177.7,0.44,2.2,8.1,"12:49:12",1
"19/01/30","13:00",0.0,8.9,61.5,1019.2,138.6,1.5,3.6,98.6,0.44,1.9,8.1,"12:50:48",1
"19/01/30","13:10",0.0,9.1,58.6,1019.2,172.0,1.1,2.6,110.1,0.44,1.5,8.5,"13:01:04",1
"19/01/30","13:20",0.0,9.9,57.9,1019.0,222.7,1.3,2.8,209.2,0.44,2.0,8.7,"13:10:32",1
"19/01/30","13:30",0.0,9.6,55.1,1018.2,149.4,1.0,2.8,117.1,0.43,1.1,8.7,"13:20:08",1
"19/01/30","13:40",0.0,9.3,54.1,1018.5,158.9,1.6,3.4,108.4,0.42,0.5,9.1,"13:37:28",1
"19/01/30","13:50",0.0,9.8,51.8,1018.0,164.8,1.5,2.9,196.4,0.41,0.4,9.2,"13:46:24",1
"19/01/30","14:00",0.0,9.9,51.4,1017.8,163.3,1.2,3.4,123.0,0.40,0.4,9.3,"13:51:20",1
"19/01/30","14:10",0.0,9.9,48.6,1017.8,213.3,1.5,2.7,211.6,0.39,-0.4,9.6,"14:02:32",1
"19/01/30","14:20",0.0,10.2,46.9,1017.5,154.0,1.1,2.6,194.7,0.37,-0.6,9.3,"14:18:08",1
"19/01/30","14:30",0.0,10.9,45.0,1017.1,172.9,1.1,2.5,112.7,0.35,-0.5,9.7,"14:21:04",1
"19/01/30","14:40",0.0,10.4,42.9,1017.3,125.2,1.0,2.7,124.1,0.33,-1.6,9.9,"14:30:16",1
"19/01/30","14:50",0.0,10.6,41.1,1017.3,24.6,1.2,2.7,46.7,0.32,-2.0,9.8,"14:42:08",1
"19/01/30","15:00",0.0,11.1,39.3,1017.1,274.4,1.0,2.6,106.7,0.29,-2.2,10.1,"14:50:32",1
"19/01/30","15:10",0.0,10.9,40.0,1017.3,268.8,1.1,2.7,118.2,0.27,-2.1,10.1,"15:08:00",1
"19/01/30","15:20",0.0,11.2,39.6,1017.3,106.1,1.0,2.1,137.7,0.25,-2.0,10.0,"15:13:20",1
"19/01/30","15:30",0.0,11.4,41.5,1017.8,338.8,1.0,2.2,330.7,0.23,-1.2,10.3,"15:24:08",1
"19/01/30","15:40",0.0,11.3,38.9,1017.3,312.6,1.3,2.9,330.2,0.20,-2.1,10.3,"15:31:52",1
"19/01/30","15:50",0.0,11.4,35.8,1017.3,209.6,0.7,2.1,131.4,0.18,-3.2,10.0,"15:48:56",1
"19/01/30","16:00",0.0,11.3,34.6,1017.8,181.0,0.6,1.7,250.2,0.15,-3.7,10.1,"15:58:16",1
"19/01/30","16:10",0.0,11.5,34.6,1017.8,271.1,1.1,2.9,151.3,0.13,-3.5,9.9,"16:07:26",1
"19/01/30","16:20",0.0,11.4,34.0,1017.8,135.8,1.2,2.8,124.4,0.10,-3.9,10.1,"16:13:28",1
"19/01/30","16:30",0.0,11.1,36.1,1017.5,130.5,1.6,3.2,111.9,0.08,-3.3,9.9,"16:24:56",1
"19/01/30","16:40",0.0,11.0,35.9,1017.5,166.4,2.1,4.4,114.1,0.06,-3.5,9.8,"16:34:40",1
"19/01/30","16:50",0.0,10.7,38.4,1017.5,198.5,1.2,3.3,146.7,0.04,-2.9,9.7,"16:41:20",1
"19/01/30","17:00",0.0,10.5,39.6,1017.3,202.1,1.2,2.2,209.8,0.02,-2.6,9.7,"16:51:44",1
"19/01/30","17:10",0.0,9.6,42.4,1017.3,261.6,1.5,2.1,252.2,0.00,-2.5,9.4,"17:03:36",1
"19/01/30","17:20",0.0,8.9,46.0,1017.3,297.2,1.6,2.6,318.8,0.00,-2.0,9.3,"17:16:08",1
"19/01/30","17:30",0.0,8.4,48.1,1016.8,309.5,1.1,2.0,312.9,0.00,-1.9,9.2,"17:20:24",1
"19/01/30","17:40",0.0,8.4,46.6,1016.6,319.6,0.7,1.8,300.0,0.00,-2.3,9.0,"17:30:02",1
"19/01/30","17:50",0.0,7.5,53.1,1016.4,300.9,2.2,4.1,316.3,0.00,-1.4,8.9,"17:48:40",1
"19/01/30","18:00",0.0,6.4,58.1,1016.4,295.8,2.0,2.9,324.2,0.00,-1.2,8.7,"17:58:32",1
"19/01/30","18:10",0.0,5.9,62.2,1016.1,284.6,2.2,3.1,287.0,0.00,-0.7,8.8,"18:09:20",1
"19/01/30","18:20",0.0,5.5,64.5,1016.1,300.7,2.5,4.1,313.1,0.00,-0.6,8.4,"18:10:56",1
"19/01/30","18:30",0.0,5.0,65.7,1016.1,292.7,2.0,2.7,308.6,0.00,-0.8,8.3,"18:25:20",1
"19/01/30","18:40",0.0,4.7,68.2,1016.1,282.0,2.3,3.1,275.4,0.00,-0.6,8.2,"18:38:24",1
"19/01/30","18:50",0.0,4.4,69.7,1015.9,297.2,2.2,3.2,313.5,0.00,-0.6,8.0,"18:46:08",1
"19/01/30","19:00",0.0,4.3,71.0,1015.6,282.2,1.7,2.7,316.6,0.00,-0.4,7.8,"18:59:20",1
"19/01/30","19:10",0.0,4.0,71.7,1015.6,286.5,1.7,2.5,312.2,0.00,-0.6,7.7,"19:03:52",1
"19/01/30","19:20",0.0,3.8,72.2,1015.6,304.7,2.0,3.1,325.1,0.00,-0.7,7.7,"19:18:48",1
"19/01/30","19:30",0.0,3.6,73.3,1015.6,284.9,2.1,3.3,325.9,0.00,-0.7,7.6,"19:26:56",1
"19/01/30","19:40",0.0,3.6,74.0,1015.6,285.2,2.1,3.5,322.6,0.00,-0.6,7.5,"19:37:12",1
"19/01/30","19:50",0.0,3.4,74.8,1015.4,301.7,2.2,3.4,315.3,0.00,-0.6,7.3,"19:49:44",1
"19/01/30","20:00",0.0,3.3,75.1,1015.4,317.7,2.2,4.2,321.7,0.00,-0.6,7.2,"19:50:56",1
"19/01/30","20:10",0.0,2.9,76.3,1015.6,307.9,1.8,2.8,314.2,0.00,-0.8,6.8,"20:01:44",1
"19/01/30","20:20",0.0,2.6,76.7,1015.4,299.4,1.6,2.6,320.7,0.00,-1.0,7.0,"20:19:12",1
"19/01/30","20:30",0.0,2.3,78.2,1015.6,312.5,2.2,3.5,316.9,0.00,-1.1,6.8,"20:29:28",1
"19/01/30","20:40",0.0,2.0,80.3,1015.4,303.3,2.2,3.4,321.6,0.00,-1.0,6.5,"20:31:36",1
"19/01/30","20:50",0.0,1.9,81.7,1015.6,293.2,1.8,2.5,310.2,0.00,-0.9,6.5,"20:40:08",1
"19/01/30","21:00",0.0,2.0,83.4,1015.4,286.1,1.7,1.8,288.6,0.00,-0.5,6.6,"20:50:56",1
"19/01/30","21:10",0.0,2.2,84.0,1015.2,283.7,1.2,1.9,299.6,0.00,-0.2,6.4,"21:03:36",1
"19/01/30","21:20",0.0,2.3,84.1,1015.4,303.1,2.0,2.6,315.1,0.00,-0.1,6.2,"21:13:44",1
"19/01/30","21:30",0.0,2.1,84.1,1015.4,315.9,2.3,2.9,321.1,0.00,-0.3,6.4,"21:26:48",1
"19/01/30","21:40",0.0,1.9,85.4,1015.6,293.3,1.5,1.8,278.8,0.00,-0.2,6.3,"21:36:56",1
"19/01/30","21:50",0.0,1.6,85.8,1015.6,296.5,1.6,1.8,301.2,0.00,-0.5,6.1,"21:45:52",1
"19/01/30","22:00",0.0,1.6,86.6,1015.4,310.6,2.1,3.5,321.8,0.00,-0.3,6.2,"21:56:48",1
"19/01/30","22:10",0.0,1.6,86.9,1015.2,312.8,2.0,2.7,323.2,0.00,-0.3,6.0,"22:00:40",1
"19/01/30","22:20",0.0,1.5,87.9,1014.7,304.1,1.6,2.2,308.0,0.00,-0.2,6.0,"22:18:32",1
"19/01/30","22:30",0.0,1.4,87.8,1014.9,300.6,1.6,2.0,321.2,0.00,-0.4,6.1,"22:20:24",1
"19/01/30","22:40",0.0,1.6,88.6,1014.7,279.4,1.6,2.0,275.0,0.00,0.0,5.7,"22:37:28",1
"19/01/30","22:50",0.0,1.5,88.1,1014.7,304.8,2.1,2.6,316.0,0.00,-0.2,5.8,"22:48:56",1
"19/01/30","23:00",0.0,1.5,89.0,1014.7,321.5,2.2,3.1,318.8,0.00,-0.1,5.9,"22:58:16",1
"19/01/30","23:10",0.0,1.5,89.7,1014.2,297.1,1.8,2.5,312.7,0.00,0.0,5.6,"23:07:04",1
"19/01/30","23:20",0.0,1.6,89.8,1014.0,299.9,1.7,2.7,318.4,0.00,0.1,5.7,"23:16:40",1
"19/01/30","23:30",0.0,1.5,89.6,1013.8,316.7,2.5,3.2,321.0,0.00,0.0,5.7,"23:26:56",1
"19/01/30","23:40",0.0,1.4,90.3,1013.8,308.7,2.0,2.4,307.1,0.00,0.0,5.6,"23:30:24",1
"19/01/30","23:50",0.0,1.3,90.5,1013.8,293.4,0.8,1.7,303.2,0.00,0.0,5.5,"23:48:48",1
"19/01/30","24:00",0.0,1.1,90.8,1013.5,309.5,2.1,2.6,322.4,0.00,-0.2,5.4,"23:58:08",1
